Forside
METAR-TAF:

METAR-TAF

Lufthavne :

Black River Falls, Wisconsin, USA

Breddekreds: 44-15-03N, længdekreds: 090-51-19W, højde: 255 m

Aktuelle vejr

Denne rapport blev lavet for 30 minutter siden, kl. 17:55 UTC
Vind 3 kt fra nord
Temperatur 27°C
Fugtighed 48%
Tryk 1019 hPa
Sigt: 16.1 km
skyfri

METAR: KBCK 031755Z AUTO 35003KT 10SM CLR 27/15 A3009 RMK AO2 T02650147 10266 20132

Tid: 13:25 (18:25 UTC)


TAF: fraværende

Vejrobservationer og prognoser fra mere end 4000 lufthavne (METAR og TAF).

De gule og røde prikker repræsenterer de meteorologiske stationer.

Flyt musen over at se navnet på stationen.

Så klik over at se vejr observationer og prognoser.

At skifte det kort: Klik på de grønne knapper med et sort kors for at zoome ind; på den grønne knap med en bindestreg for at zoome ud; eller på de grønne pile for tilstødende kort.


METAR-TAF: